TimeAST,TemperatureF,Dew PointF,Humidity,Sea Level PressureIn,VisibilityMPH,Wind Direction,Wind SpeedMPH,Gust SpeedMPH,PrecipitationIn,Events,Conditions,WindDirDegrees,DateUTC
12:56 AM,75.9,68.0,76,30.12,10.0,Variable,4.6,-,0.00,Rain,Light Rain,0,2013-01-29 04:56:00
1:56 AM,75.9,68.0,76,30.11,10.0,ENE,9.2,-,0.00,,Mostly Cloudy,60,2013-01-29 05:56:00
2:56 AM,77.0,69.1,76,30.09,10.0,ESE,9.2,18.4,N/A,,Mostly Cloudy,110,2013-01-29 06:56:00
3:56 AM,75.9,69.1,79,30.07,10.0,Variable,5.8,-,N/A,,Mostly Cloudy,0,2013-01-29 07:56:00
4:56 AM,75.0,68.0,79,30.07,6.0,ENE,10.4,17.3,0.00,Rain,Rain,70,2013-01-29 08:56:00
5:56 AM,72.0,68.0,87,30.08,9.0,East,3.5,-,0.03,Rain,Light Rain,100,2013-01-29 09:56:00
6:56 AM,73.9,70.0,87,30.10,10.0,Calm,Calm,-,0.00,,Mostly Cloudy,0,2013-01-29 10:56:00
7:56 AM,73.9,68.0,82,30.11,10.0,East,11.5,-,N/A,,Mostly Cloudy,80,2013-01-29 11:56:00
8:56 AM,75.9,69.1,79,30.12,10.0,ESE,9.2,-,N/A,,Mostly Cloudy,110,2013-01-29 12:56:00
9:56 AM,77.0,66.9,71,30.15,10.0,East,12.7,-,N/A,,Mostly Cloudy,100,2013-01-29 13:56:00
10:56 AM,79.0,69.1,72,30.13,10.0,East,8.1,-,N/A,,Mostly Cloudy,100,2013-01-29 14:56:00
11:56 AM,79.0,70.0,74,30.11,10.0,Variable,5.8,-,0.00,,Mostly Cloudy,0,2013-01-29 15:56:00
12:56 PM,81.0,69.1,67,30.09,10.0,ENE,18.4,24.2,N/A,,Mostly Cloudy,60,2013-01-29 16:56:00
1:56 PM,82.9,68.0,60,30.06,10.0,ENE,18.4,-,N/A,,Mostly Cloudy,70,2013-01-29 17:56:00
2:56 PM,82.0,68.0,62,30.05,10.0,ENE,16.1,-,N/A,,Scattered Clouds,70,2013-01-29 18:56:00
3:56 PM,81.0,69.1,67,30.04,10.0,ENE,12.7,-,N/A,,Scattered Clouds,60,2013-01-29 19:56:00
4:56 PM,80.1,70.0,71,30.05,10.0,ENE,12.7,-,N/A,,Scattered Clouds,70,2013-01-29 20:56:00
5:56 PM,77.0,66.9,71,30.06,10.0,ENE,8.1,-,N/A,,Mostly Cloudy,70,2013-01-29 21:56:00
6:56 PM,77.0,68.0,74,30.07,10.0,East,5.8,-,N/A,,Mostly Cloudy,100,2013-01-29 22:56:00
7:56 PM,77.0,68.0,74,30.09,10.0,ESE,4.6,-,N/A,,Scattered Clouds,120,2013-01-29 23:56:00
8:56 PM,75.0,69.1,82,30.10,10.0,ESE,4.6,-,N/A,,Partly Cloudy,110,2013-01-30 00:56:00
9:56 PM,75.9,69.1,79,30.10,10.0,Calm,Calm,-,N/A,,Partly Cloudy,0,2013-01-30 01:56:00
10:56 PM,75.0,69.1,82,30.10,10.0,Calm,Calm,-,N/A,,Partly Cloudy,0,2013-01-30 02:56:00
11:56 PM,75.0,68.0,79,30.09,10.0,ESE,3.5,-,N/A,,Partly Cloudy,110,2013-01-30 03:56:00